This is the latest recevied weather packets stored in our database for station/object IZ1UQG-2. If no packets are shown the sender has not sent any weather packets the latest 10 day(s).
| Time | Temp. | Humidity | Pressure | Rain* | Wind** | Luminosity | Snow |
|---|---|---|---|---|---|---|---|
| 1777383724 | 16.67° C | 84% | 1014.2 hPa | 0 mm | - | 81 W/m² | - |
| 1777383664 | 16.67° C | 85% | 1014.2 hPa | 0 mm | - | 83 W/m² | - |
| 1777383364 | 16.67° C | 84% | 1014.2 hPa | 0 mm | - | 90 W/m² | - |
| 1777382944 | 16.67° C | 83% | 1014.3 hPa | 0 mm | - | 105 W/m² | - |
| 1777382884 | 17.22° C | 83% | 1014.3 hPa | 0 mm | - | 109 W/m² | - |
| 1777382765 | 17.22° C | 82% | 1014.2 hPa | 0 mm | - | 116 W/m² | - |
| 1777381324 | 17.22° C | 82% | 1014.4 hPa | 0 mm | - | 179 W/m² | - |
| 1777380905 | 17.22° C | 81% | 1014.4 hPa | 0 mm | - | 197 W/m² | - |
| 1777380844 | 17.22° C | 82% | 1014.4 hPa | 0 mm | - | 193 W/m² | - |
| 1777379765 | 18.33° C | 76% | 1014.3 hPa | 0 mm | - | 93 W/m² | - |
| 1777379404 | 18.33° C | 75% | 1014.2 hPa | 0 mm | - | 97 W/m² | - |
| 1777379045 | 18.33° C | 75% | 1014.2 hPa | 0 mm | - | 139 W/m² | - |
| 1777378328 | 18.33° C | 75% | 1014.2 hPa | 0 mm | - | 178 W/m² | - |
| 1777377725 | 18.33° C | 76% | 1014.3 hPa | 0 mm | - | 127 W/m² | - |
| 1777377665 | 18.33° C | 76% | 1014.4 hPa | 0 mm | - | 125 W/m² | - |
| 1777377544 | 17.78° C | 76% | 1014.4 hPa | 0 mm | - | 120 W/m² | - |
| 1777377124 | 17.78° C | 78% | 1014.4 hPa | 0 mm | - | 146 W/m² | - |
| 1777375684 | 17.78° C | 75% | 1014.6 hPa | 0 mm | - | 315 W/m² | - |
| 1777375384 | 17.22° C | 79% | 1014.7 hPa | 0 mm | - | 292 W/m² | - |
| 1777375264 | 17.22° C | 79% | 1014.7 hPa | 0 mm | - | 274 W/m² | - |
| 1777374424 | 17.22° C | 79% | 1014.9 hPa | 0 mm | - | 239 W/m² | - |
| 1777374184 | 17.22° C | 79% | 1014.9 hPa | 0 mm | - | 236 W/m² | - |
| 1777374064 | 17.22° C | 80% | 1014.9 hPa | 0 mm | - | 237 W/m² | - |
| 1777374005 | 17.22° C | 80% | 1014.9 hPa | 0 mm | - | 236 W/m² | - |
| 1777373764 | 17.22° C | 79% | 1014.9 hPa | 0 mm | - | 227 W/m² | - |
* Rain latest hour (hover to see other rain measurements)
** Current wind speed in m/s (hover to see current wind gust speed)